Location: Lane
(33.5226°N, 79.8788°W)
Time: 19:23:17
(UTC+00:00)

Explorer 11/Cluster Stage 4 - Pass Details

Date: 06 October 2022
Orbit: 466 x 1247 km, 28.8° (Epoch: 01 December)

Event Time Altitude Azimuth Distance (km) Brightness Sun altitude
Rises 13:02:52 0° 208° (SSW) 3,908 10.1 20.5°
Reaches altitude 10° 13:06:25 10° 192° (SSW) 3,056 9.8 21.2°
Maximum altitude 13:11:42 20° 149° (SSE) 2,495 10.2 22.2°
Drops below altitude 10° 13:17:11 10° 107° (ESE) 3,211 11.7 23.2°
Sets 13:21:01 0° 92° (E) 4,169 11.4 23.9°
